Total_Precipitation_Accumulation
1.25 1.19 1.07 1.15 1.15 1.13 1.14 1.15 1.12 1.16 1.23 1.19 1.10 1.09 1.12 1.09 1.03 1.03 1.32 1.95 2.96 3.71 3.98 3.91 3.36 3.00 2.82 2.54 2.45 2.65 2.80 2.79 2.67 2.60 2.74 2.83 2.74 2.53 2.43 2.37 2.42 2.40 2.43
1.14 1.16 1.14 1.19 1.21 1.20 1.13 1.06 1.03 1.18 1.22 1.25 1.20 1.13 1.09 0.99 1.01 1.15 1.37 1.59 1.90 2.59 3.60 3.95 3.69 3.38 3.18 2.89 2.71 2.67 2.69 2.62 2.55 2.53 2.55 2.52 2.44 2.22 2.17 2.36 2.57 2.45 2.36
1.13 1.16 1.15 1.19 1.20 1.25 1.23 1.19 1.18 1.26 1.28 1.36 1.37 1.20 1.12 1.06 1.03 1.12 1.27 1.45 1.35 1.50 2.34 3.29 3.69 3.47 3.35 3.16 2.86 2.78 2.68 2.60 2.44 2.52 2.45 2.40 2.26 2.18 2.15 2.39 2.60 2.55 2.39
1.08 1.16 1.18 1.21 1.29 1.25 1.28 1.36 1.37 1.44 1.46 1.50 1.50 1.30 1.12 1.22 1.13 1.12 1.27 1.34 1.36 1.33 1.59 2.03 2.48 2.84 3.27 3.42 3.21 2.99 2.76 2.57 2.29 2.36 2.36 2.25 2.15 2.16 2.15 2.42 2.44 2.43 2.36
1.23 1.33 1.39 1.39 1.42 1.44 1.42 1.34 1.36 1.48 1.62 1.61 1.42 1.33 1.23 1.27 1.26 1.24 1.42 1.41 1.42 1.42 1.48 1.43 1.53 1.88 2.53 3.15 3.31 3.18 2.87 2.52 2.27 2.25 2.24 2.08 2.15 2.22 2.15 2.24 2.26 2.23 2.24
1.46 1.63 1.68 1.56 1.60 1.72 1.79 1.63 1.68 1.60 1.55 1.64 1.45 1.40 1.40 1.35 1.30 1.38 1.44 1.52 1.63 1.48 1.46 1.39 1.35 1.28 1.65 2.17 2.69 3.06 3.08 2.85 2.57 2.44 2.42 2.11 2.08 2.18 2.20 2.14 2.10 2.12 2.10
1.79 1.99 2.02 2.01 2.01 2.02 2.00 1.92 2.08 1.99 1.71 1.63 1.87 1.86 1.68 1.49 1.39 1.37 1.42 1.65 1.75 1.66 1.67 1.59 1.49 1.38 1.26 1.29 1.68 2.52 3.02 3.19 3.08 2.77 2.65 2.44 2.07 1.99 2.09 1.97 1.96 2.04 2.08
2.03 2.07 2.30 2.42 2.39 2.59 2.61 2.37 2.49 2.51 2.10 1.85 2.17 2.53 2.23 1.98 1.53 1.41 1.53 1.59 1.68 1.77 1.81 1.66 1.50 1.41 1.38 1.33 1.20 1.69 2.22 2.87 3.23 2.95 2.90 2.89 2.34 2.07 1.95 1.88 1.94 1.99 2.08
2.20 2.27 2.38 2.54 2.55 2.64 2.86 2.97 2.87 2.94 2.73 2.29 2.15 2.53 2.48 2.29 2.05 1.67 1.56 1.64 1.78 1.83 1.88 1.86 1.66 1.41 1.39 1.46 1.29 1.20 1.44 1.82 2.58 2.98 3.11 3.23 2.77 2.31 1.94 1.88 1.91 1.89 2.06
2.46 2.57 2.58 2.65 2.67 2.68 2.79 2.96 2.95 3.12 3.24 2.82 2.44 2.20 2.04 2.06 2.23 2.05 1.76 1.70 1.84 1.83 1.84 1.87 1.89 1.72 1.56 1.61 1.47 1.19 1.17 1.30 1.78 2.52 2.94 3.33 3.17 2.68 2.18 2.06 2.12 2.05 2.11
2.59 2.65 2.72 2.85 2.83 2.80 2.74 2.95 3.04 3.15 3.12 3.06 2.91 2.73 2.57 2.32 1.97 2.12 2.13 1.93 1.79 1.68 1.73 1.87 2.03 1.98 1.82 1.76 1.85 1.41 1.13 1.14 1.31 1.94 2.51 3.27 3.45 3.05 2.73 2.51 2.34 2.23 2.06
2.65 2.53 2.46 2.65 2.71 2.73 2.69 2.85 2.98 3.11 3.11 3.16 3.09 2.80 2.82 2.73 2.35 2.31 2.16 1.98 1.99 1.79 1.69 1.77 1.83 1.83 1.82 1.81 1.70 1.61 1.27 1.11 1.17 1.49 2.04 2.73 3.39 3.36 3.15 3.01 2.74 2.63 2.41
2.47 2.48 2.40 2.42 2.47 2.40 2.39 2.51 2.56 2.64 2.78 2.97 2.86 2.62 2.58 2.43 2.42 2.53 2.44 2.20 1.99 1.74 1.73 1.69 1.67 1.69 1.68 1.70 1.77 1.78 1.34 1.11 1.11 1.28 1.80 2.24 2.66 3.16 3.28 3.12 2.99 3.07 3.09
2.19 2.24 2.27 2.24 2.29 2.31 2.26 2.36 2.38 2.38 2.43 2.48 2.40 2.50 2.57 2.40 2.33 2.34 2.44 2.65 2.42 2.10 1.89 1.74 1.70 1.74 1.71 1.67 1.81 1.86 1.45 1.25 1.14 1.17 1.40 1.73 2.04 2.55 2.94 2.93 2.98 3.18 3.29
1.76 1.81 1.87 2.01 2.14 2.20 2.21 2.32 2.39 2.36 2.29 2.27 2.35 2.43 2.37 2.30 2.28 2.21 2.24 2.45 2.62 2.44 2.21 2.00 1.85 1.81 1.84 1.75 1.83 1.64 1.59 1.46 1.26 1.24 1.29 1.27 1.45 1.79 2.08 2.34 2.56 2.57 2.76
1.39 1.44 1.53 1.73 2.04 2.18 2.21 2.27 2.32 2.34 2.34 2.27 2.35 2.47 2.51 2.47 2.49 2.43 2.33 2.32 2.31 2.37 2.24 1.98 1.81 1.76 1.93 1.81 1.94 1.63 1.59 1.76 1.50 1.40 1.33 1.19 1.18 1.27 1.41 1.66 1.97 2.13 2.18
1.27 1.35 1.41 1.55 1.72 1.95 2.18 2.33 2.33 2.27 2.25 2.21 2.14 2.26 2.41 2.47 2.59 2.63 2.65 2.55 2.43 2.39 2.30 2.06 1.87 1.79 2.00 2.02 1.95 1.83 1.65 1.59 1.57 1.56 1.43 1.35 1.26 1.16 1.20 1.30 1.57 1.82 2.04
1.17 1.20 1.36 1.56 1.66 1.74 1.84 1.94 2.00 2.04 2.06 2.08 2.04 2.01 2.08 2.17 2.29 2.47 2.58 2.55 2.56 2.46 2.38 2.35 2.15 1.92 1.84 1.91 1.98 2.07 1.93 1.68 1.60 1.69 1.62 1.51 1.42 1.30 1.19 1.17 1.28 1.40 1.59
1.19 1.19 1.26 1.42 1.51 1.58 1.63 1.69 1.82 1.92 1.93 1.87 1.87 1.77 1.75 1.86 1.99 2.14 2.23 2.34 2.49 2.53 2.53 2.48 2.41 2.21 1.95 1.95 2.02 2.08 2.08 2.11 1.81 1.71 1.71 1.66 1.59 1.55 1.43 1.25 1.17 1.19 1.21
1.21 1.24 1.35 1.41 1.45 1.46 1.58 1.63 1.71 1.71 1.66 1.58 1.58 1.52 1.51 1.54 1.65 1.82 1.95 2.15 2.37 2.50 2.57 2.57 2.52 2.27 2.08 2.03 2.00 2.06 2.17 2.21 2.14 1.86 1.75 1.67 1.74 1.68 1.53 1.40 1.26 1.20 1.21
1.23 1.29 1.35 1.43 1.47 1.48 1.53 1.61 1.55 1.47 1.45 1.44 1.40 1.24 1.20 1.26 1.31 1.43 1.43 1.70 1.99 2.23 2.35 2.40 2.41 2.25 2.03 1.93 1.79 1.85 2.00 2.18 2.21 2.13 2.01 1.74 1.66 1.59 1.55 1.53 1.43 1.33 1.26
1.16 1.19 1.22 1.38 1.49 1.39 1.58 1.56 1.37 1.24 1.22 1.28 1.26 1.14 1.07 1.08 1.02 1.03 1.07 1.31 1.64 1.81 1.96 2.14 2.21 2.08 1.90 1.81 1.87 1.87 1.88 1.92 1.94 1.84 1.81 1.81 1.71 1.62 1.56 1.53 1.56 1.52 1.40
1.12 1.14 1.10 1.21 1.29 1.39 1.43 1.26 1.25 1.17 1.17 1.18 1.20 1.22 1.11 1.02 1.11 0.99 0.96 1.08 1.19 1.32 1.46 1.71 1.91 1.89 1.99 1.89 1.79 1.71 1.72 1.76 1.76 1.79 1.79 1.78 1.66 1.57 1.47 1.45 1.60 1.50 1.48
1.02 1.05 1.05 1.02 1.07 1.22 1.23 1.09 1.16 1.08 1.17 1.22 1.24 1.33 1.33 1.23 1.20 1.28 1.19 1.19 1.16 1.12 1.23 1.12 1.28 1.66 1.83 1.91 1.86 1.87 1.97 1.89 1.72 1.71 1.72 1.73 1.62 1.50 1.37 1.29 1.40 1.31 1.24
0.95 0.93 0.96 0.97 1.01 1.07 1.08 1.00 1.04 1.07 1.21 1.21 1.15 1.28 1.33 1.24 1.35 1.47 1.51 1.52 1.44 1.26 1.41 1.43 1.29 1.38 1.56 1.64 1.75 1.81 1.85 1.78 1.70 1.59 1.45 1.42 1.35 1.37 1.42 1.33 1.29 1.34 1.25
0.96 0.92 0.87 0.84 0.84 0.87 0.98 0.88 0.99 1.07 1.16 1.18 1.18 1.21 1.40 1.31 1.31 1.30 1.35 1.46 1.43 1.26 1.13 1.15 1.12 1.00 0.93 1.06 1.30 1.41 1.68 1.81 1.76 1.64 1.42 1.36 1.37 1.36 1.38 1.28 1.17 1.21 1.21